Regional Weather Roundup
Issued by NWS

Home | Current Version | Previous Version | Text Only | Print | Product List | Glossary Off
Versions: 1 2 3 4 5 6 7 8 9 10 11 12 13 14 15 16 17 18 19 20 21 22 23 24 25 26 27 28 29 30 31 32 33 34 35 36 37 38 39 40 41 42 43 44 45 46 47 48 49 50

000
ASUS43 KLSX 010459
RWRMO

WEATHER SUMMARY FOR MISSOURI
NATIONAL WEATHER SERVICE SPRINGFIELD MO
1200 AM CDT MON SEP 01 2014

NOTE: "FAIR" INDICATES FEW OR NO CLOUDS BELOW 12,000 FEET WITH NO
       SIGNIFICANT WEATHER AND/OR OBSTRUCTIONS TO VISIBILITY.
       CURRENT SKY AND/OR WEATHER CONDITIONS ARE NOT AVAILABLE FOR
       CHILLICOTHE AND FARMINGTON.

MOZ001>031-035>038-043-044-053-054-010600-
...NORTHERN AND WESTERN MISSOURI...

CITY           SKY/WX    TMP DP  RH WIND       PRES   REMARKS
KANSAS CTY INT LGT RAIN  66  64  93 SE12      29.86F
KANSAS C DTWN  LGT RAIN  69  65  86 CALM      29.87F
ST JOSEPH      RAIN      68  66  93 SE18G25   29.78F
CHILLICOTHE      N/A     69  66  90 W6        29.88R
KIRKSVILLE     CLOUDY    75  64  68 S9        29.81R

$$
MOZ066>068-077>081-088>096-101>105-010600-
...SOUTHWEST MISSOURI...

CITY           SKY/WX    TMP DP  RH WIND       PRES   REMARKS
SPRINGFIELD    PTCLDY    77  70  79 S16       29.87S
JOPLIN         MOCLDY    81  69  67 S23G30    29.83R

$$
MOZ032>034-039>042-045>050-055>058-069>072-010600-
...CENTRAL MISSOURI...

CITY           SKY/WX    TMP DP  RH WIND       PRES   REMARKS
COLUMBIA       MOCLDY    79  69  71 S12       29.83S
JEFFERSON CITY MOCLDY    81  69  67 S7        29.82S
ROLLA          PTCLDY    76  69  79 S13       29.87S
SEDALIA        CLOUDY    83  67  58 W8        29.88R
OSAGE BEACH    MOCLDY    79  66  65 S9        29.85S

$$
MOZ051-052-059>065-010600-
...EAST CENTRAL MISSOURI...

CITY           SKY/WX    TMP DP  RH WIND       PRES   REMARKS
ST LOUIS INTL  CLEAR     79  71  76 S10       29.88F
SPIRIT OF STL  CLEAR     77  71  82 S8        29.86S
ST CHARLES     CLEAR     77  71  82 S7        29.86S

$$
MOZ072>076-082>087-097>100-106>115-010600-
...SOUTH CENTRAL AND SOUTHEAST MISSOURI...

CITY           SKY/WX    TMP DP  RH WIND       PRES   REMARKS
CAPE GIRARDEAU CLEAR     76  72  87 S8        29.94S
FARMINGTON     CLEAR     73  72  94 S8        29.95F
POPLAR BLUFF   CLEAR     75  70  84 CALM      29.93S
WEST PLAINS    CLEAR     75  70  84 S9        29.96R

$$


USA.gov is the U.S. government's official web portal to all federal, state and local government web resources and services.